EW7431 Weather Reports


Display with metric or nautical units.
time (UTC)temp
F
wind
direction
speed
MPH
gust
MPH
rain 1hr
in
rain 24hr
in
rain mn
in
humidity
%
barometer
mb
20260505124516 61 308 0.0 2.0 0.00 0.01 0.01 74 1012.0
20260505123015 60 82 0.0 3.0 0.00 0.01 0.01 75 1011.6
20260505121518 57 349 0.0 2.0 0.00 0.01 0.01 79 1011.7
20260505120017 55 339 0.0 1.0 0.00 0.01 0.01 86 1011.5
20260505114510 53 172 0.0 2.0 0.00 0.01 0.01 92 1011.4
20260505113012 52 172 0.0 1.0 0.00 0.01 0.01 92 1011.3
20260505111532 51 172 0.0 2.0 0.00 0.01 0.01 91 1011.3
20260505101517 51 184 0.0 2.0 0.00 0.01 0.01 88 1010.9
20260505100021 52 142 0.0 1.0 0.00 0.01 0.01 88 1011.0
20260505094522 52 142 0.0 1.0 0.01 0.01 0.01 86 1010.7
20260505093022 53 134 0.0 1.0 0.01 0.01 0.01 85 1011.1
20260505091522 54 134 0.0 3.0 0.01 0.01 0.01 83 1011.0
20260505090024 56 134 0.0 3.0 0.01 0.01 0.01 79 1010.9
20260505084526 57 190 0.0 2.0 0.00 0.00 0.00 72 1010.9
20260505083019 58 109 0.0 0.0 0.00 0.00 0.00 71 1010.8
20260505081526 59 109 0.0 1.0 0.00 0.00 0.00 69 1010.5
20260505080012 59 109 0.0 1.0 0.00 0.00 0.00 69 1010.4
20260505074509 59 115 0.0 2.0 0.00 0.00 0.00 69 1010.5
20260505073009 58 115 0.0 1.0 0.00 0.00 0.00 69 1010.4
20260505071523 57 115 0.0 2.0 0.00 0.00 0.00 69 1010.6
20260505070007 57 117 0.0 1.0 0.00 0.00 0.00 69 1010.6
20260505064523 56 136 0.0 1.0 0.00 0.00 0.00 70 1010.5
20260505063016 56 108 0.0 2.0 0.00 0.00 0.00 69 1010.6
20260505061514 57 133 0.0 0.0 0.00 0.00 0.00 67 1010.7
20260505060012 57 133 0.0 0.0 0.00 0.00 0.00 67 1010.6
20260505054515 56 133 0.0 2.0 0.00 0.00 0.00 67 1010.6
20260505053023 56 133 0.0 2.0 0.00 0.00 0.00 66 1010.6
20260505051509 57 130 0.0 3.0 0.00 0.00 0.00 65 1010.7
20260505041526 58 145 0.0 1.0 0.00 0.00 0.00 62 1010.8
20260505040032 58 145 0.0 2.0 0.00 0.00 0.00 64 1010.5
20260505034515 59 145 0.0 1.0 0.00 0.00 0.00 62 1010.5
20260505033015 59 145 0.0 1.0 0.00 0.00 0.00 63 1010.5
20260505031518 60 145 0.0 2.0 0.00 0.00 0.00 60 1010.6
20260505030024 61 145 0.0 2.0 0.00 0.00 0.00 59 1010.8
20260505024524 62 123 0.0 2.0 0.00 0.00 0.00 58 1010.6
20260505023024 62 132 1.0 6.0 0.00 0.00 0.00 54 1010.7
20260505021525 61 19 0.0 2.0 0.00 0.00 0.00 58 1011.0
20260505020021 61 144 0.0 3.0 0.00 0.00 0.00 56 1011.0
20260505014517 62 124 0.0 2.0 0.00 0.00 0.00 55 1010.9
20260505013018 62 207 0.0 2.0 0.00 0.00 0.00 52 1010.8
20260505011527 63 154 0.0 1.0 0.00 0.00 0.00 53 1010.6
20260505010028 63 157 0.0 2.0 0.00 0.00 0.00 50 1010.6
20260505004526 63 153 0.0 3.0 0.00 0.00 0.00 50 1010.5
20260505003024 64 109 0.0 1.0 0.00 0.00 0.00 49 1010.4
20260505001526 65 109 0.0 2.0 0.00 0.00 0.00 47 1010.2
20260505000023 65 89 0.0 2.0 0.00 0.00 0.00 47 1010.2
20260504234525 66 140 0.0 4.0 0.00 0.00 0.00 45 1010.0
20260504233028 66 71 0.0 2.0 0.00 0.00 0.00 45 1010.0
20260504231526 67 146 1.0 4.0 0.00 0.00 0.00 45 1009.9
20260504230012 68 13 1.0 3.0 0.00 0.00 0.00 43 1009.8
20260504224506 68 118 0.0 3.0 0.00 0.00 0.00 42 1009.7
20260504223004 69 181 0.0 9.0 0.00 0.00 0.00 43 1009.7
20260504221505 69 127 1.0 6.0 0.00 0.00 0.00 44 1009.8
20260504220005 71 107 1.0 6.0 0.00 0.00 0.00 42 1009.8
20260504214521 71 311 1.0 8.0 0.00 0.00 0.00 39 1009.9
20260504213012 71 206 1.0 7.0 0.00 0.00 0.00 37 1009.9
20260504211512 71 263 0.0 11.0 0.00 0.00 0.00 38 1009.9
20260504210006 71 257 2.0 10.0 0.00 0.00 0.00 38 1009.9
20260504204504 72 157 1.0 8.0 0.00 0.00 0.00 38 1010.0
20260504203011 71 237 5.0 14.0 0.00 0.00 0.00 39 1010.0
20260504201507 71 134 1.0 14.0 0.00 0.00 0.00 38 1010.2
20260504200032 71 275 2.0 11.0 0.00 0.00 0.00 40 1010.3
20260504194520 71 248 3.0 11.0 0.00 0.00 0.00 40 1010.4
20260504193012 71 253 5.0 13.0 0.00 0.00 0.00 39 1010.6
20260504191520 71 219 1.0 10.0 0.00 0.00 0.00 39 1010.7
20260504190016 71 254 4.0 11.0 0.00 0.00 0.00 40 1010.8
20260504184515 71 242 1.0 14.0 0.00 0.00 0.00 38 1011.0
20260504183027 71 250 5.0 12.0 0.00 0.00 0.00 41 1011.1
20260504181523 70 298 2.0 12.0 0.00 0.00 0.00 40 1011.2
20260504180017 70 273 1.0 6.0 0.00 0.00 0.00 43 1011.6
20260504174515 69 277 2.0 9.0 0.00 0.00 0.00 38 1011.8
20260504173026 69 168 1.0 15.0 0.00 0.00 0.00 42 1012.0
20260504171521 68 252 3.0 12.0 0.00 0.00 0.00 44 1012.3